LY3PGO-4 Weather Reports


time (UTC)temp
C
wind
direction
speed
KPH
gust
KPH
rain 1hr
cm
rain 24hr
cm
rain mn
cm
humidity
%
barometer
mb
20260506122922 16 90 4.8 22.5 0.00 0.05 0.05 51 1007.5
20260506121919 16 157 3.2 14.5 0.00 0.05 0.05 51 1007.7
20260506120910 16 90 4.8 22.5 0.00 0.05 0.05 49 1007.8
20260506115909 16 90 6.4 17.7 0.00 0.05 0.05 49 1007.9
20260506114857 16 90 6.4 17.7 0.00 0.05 0.05 48 1008.4
20260506113850 16 90 6.4 20.9 0.00 0.05 0.05 51 1007.9
20260506112849 16 135 6.4 20.9 0.00 0.05 0.05 49 1008.4
20260506111839 16 135 6.4 17.7 0.00 0.05 0.05 49 1008.2
20260506110832 16 45 6.4 27.4 0.00 0.05 0.05 51 1008.3
20260506105827 16 90 4.8 20.9 0.00 0.05 0.05 49 1008.5
20260506104820 16 112 6.4 17.7 0.00 0.05 0.05 49 1008.6
20260506103816 16 112 4.8 17.7 0.00 0.05 0.05 50 1008.6
20260506102808 16 90 6.4 22.5 0.00 0.05 0.05 50 1008.7
20260506101801 15 112 4.8 22.5 0.00 0.05 0.05 49 1008.9
20260506100755 15 135 9.7 17.7 0.00 0.05 0.05 52 1009.2
20260506095749 15 112 6.4 12.9 0.00 0.05 0.05 51 1009.2
20260506094746 15 112 6.4 17.7 0.00 0.05 0.05 52 1009.3
20260506093737 15 112 6.4 17.7 0.00 0.05 0.05 51 1009.4
20260506092731 15 90 6.4 20.9 0.00 0.05 0.05 50 1009.4
20260506091725 14 112 6.4 22.5 0.00 0.05 0.05 53 1009.4
20260506090718 14 67 3.2 14.5 0.00 0.05 0.05 54 1009.4
20260506085716 14 90 4.8 14.5 0.00 0.05 0.05 51 1009.3
20260506084706 13 90 6.4 17.7 0.00 0.05 0.05 53 1009.5
20260506083659 13 90 4.8 12.9 0.00 0.05 0.05 50 1009.5
20260506082653 13 112 6.4 17.7 0.00 0.05 0.05 48 1009.6
20260506081647 13 135 6.4 14.5 0.00 0.05 0.05 49 1009.6
20260506080644 13 112 6.4 20.9 0.00 0.05 0.05 49 1009.6
20260506072617 11 135 6.4 17.7 0.00 0.05 0.05 50 1010.1
20260506071613 11 112 4.8 12.9 0.00 0.05 0.05 55 1010.1
20260506070604 10 135 3.2 11.3 0.00 0.05 0.05 56 1010.1
20260506061532 9 112 3.2 6.4 0.00 0.05 0.05 62 1010.4
20260506060527 8 90 1.6 6.4 0.00 0.05 0.05 62 1010.5
20260506050450 8 112 3.2 14.5 0.00 0.05 0.05 60 1010.3
20260506044440 8 90 4.8 14.5 0.00 0.05 0.05 63 1010.7
20260506043431 8 90 3.2 12.9 0.00 0.05 0.05 66 1010.3
20260506042426 8 112 3.2 9.7 0.00 0.05 0.05 68 1010.7
20260506041418 8 112 1.6 11.3 0.00 0.05 0.05 64 1010.8
20260506040412 8 112 4.8 14.5 0.00 0.05 0.05 62 1010.7
20260506035408 8 135 4.8 17.7 0.00 0.05 0.05 63 1010.5
20260506034400 8 135 1.6 9.7 0.00 0.05 0.05 65 1010.5
20260506033354 8 112 1.6 11.3 0.00 0.05 0.05 68 1010.3
20260506032348 8 112 3.2 11.3 0.00 0.05 0.05 68 1010.2
20260506031341 8 112 3.2 12.9 0.00 0.05 0.05 68 1010.3
20260506030338 8 90 6.4 11.3 0.00 0.05 0.05 68 1010.2
20260506025330 8 112 6.4 14.5 0.00 0.05 0.05 69 1010.3
20260506024323 8 112 3.2 12.9 0.00 0.05 0.05 71 1010.3
20260506023316 8 157 3.2 9.7 0.00 0.05 0.05 72 1010.2
20260506022310 8 135 3.2 12.9 0.00 0.05 0.05 73 1009.9
20260506021307 8 157 4.8 12.9 0.00 0.05 0.05 74 1009.9
20260506020258 8 112 3.2 11.3 0.00 0.05 0.05 77 1009.8
20260506015251 8 135 3.2 14.5 0.00 0.05 0.05 79 1009.7
20260506014245 9 202 1.6 12.9 0.00 0.05 0.05 82 1009.5
20260506013240 9 112 3.2 11.3 0.00 0.05 0.05 83 1009.5
20260506012237 9 157 4.8 11.3 0.00 0.05 0.05 87 1009.1
20260506011227 9 135 3.2 9.7 0.00 0.05 0.05 89 1009.4
20260506010221 9 135 1.6 6.4 0.00 0.05 0.05 90 1009.4
20260506005215 10 135 1.6 6.4 0.00 0.05 0.05 90 1009.4
20260506004209 9 157 3.2 6.4 0.00 0.05 0.05 89 1009.4
20260506003205 10 135 0.0 6.4 0.00 0.05 0.05 89 1009.3
20260506002156 10 135 1.6 3.2 0.00 0.05 0.05 88 1009.4
20260506001149 10 135 0.0 3.2 0.03 0.05 0.05 87 1009.4
20260506000143 10 135 1.6 3.2 0.03 0.05 0.05 87 1009.3
20260505235151 10 135 0.0 0.0 0.03 0.05 0.05 87 1009.4
20260505234159 10 135 0.0 0.0 0.03 0.05 0.05 88 1009.1
20260505233125 10 135 0.0 3.2 0.03 0.05 0.05 87 1009.1
20260505232119 10 135 0.0 0.0 0.00 0.03 0.05 87 1008.8
20260505231113 10 135 0.0 0.0 0.00 0.03 0.03 86 1009.2
20260505230106 10 135 0.0 0.0 0.00 0.03 0.03 88 1009.1
20260505225103 10 135 0.0 0.0 0.00 0.03 0.03 86 1009.0
20260505224053 10 135 0.0 3.2 0.00 0.03 0.03 87 1008.8
20260505223047 10 135 3.2 3.2 0.00 0.03 0.03 88 1008.7
20260505222042 10 157 3.2 3.2 0.03 0.03 0.03 87 1008.7
20260505221035 10 180 0.0 0.0 0.03 0.03 0.03 89 1009.5
20260505220032 10 180 0.0 3.2 0.03 0.03 0.03 90 1009.2
20260505215022 10 247 0.0 0.0 0.03 0.03 0.03 90 1008.9
20260505214017 10 247 0.0 3.2 0.03 0.03 0.03 89 1009.0
20260505213010 10 247 1.6 3.2 0.03 0.03 0.03 89 1009.4
20260505212005 10 202 0.0 0.0 0.00 0.00 0.00 88 1009.1
20260505211001 10 135 0.0 6.4 0.00 0.00 0.00 88 1008.4
20260505205952 10 180 1.6 6.4 0.00 0.00 0.00 87 1008.6
20260505204946 11 202 0.0 3.2 0.00 0.00 0.00 87 1008.5
20260505203940 11 135 3.2 6.4 0.00 0.00 0.00 85 1008.4
20260505202934 11 135 1.6 9.7 0.00 0.00 0.00 83 1008.3
20260505201932 12 135 0.0 6.4 0.00 0.00 0.00 79 1009.0
20260505200922 12 157 3.2 6.4 0.00 0.00 0.00 77 1008.1
20260505195915 12 135 0.0 12.9 0.00 0.00 0.00 76 1008.8
20260505194908 13 202 0.0 12.9 0.00 0.00 0.00 72 1008.6
20260505193902 13 247 3.2 17.7 0.00 0.00 0.00 71 1008.8
20260505192858 13 157 3.2 9.7 0.00 0.00 0.00 67 1008.5
20260505191851 13 337 1.6 6.4 0.00 0.00 0.00 66 1008.1
20260505190844 13 180 1.6 11.3 0.00 0.00 0.00 70 1008.4
20260505185837 15 247 6.4 12.9 0.00 0.00 0.00 65 1008.7
20260505184831 15 202 3.2 11.3 0.00 0.00 0.00 57 1007.9
20260505183829 15 202 3.2 14.5 0.00 0.00 0.00 56 1007.6
20260505182818 16 180 3.2 6.4 0.00 0.00 0.00 55 1007.5
20260505181812 16 157 1.6 6.4 0.00 0.00 0.00 54 1007.4
20260505180806 16 157 3.2 6.4 0.00 0.00 0.00 54 1007.4
20260505175800 16 225 3.2 6.4 0.00 0.00 0.00 54 1007.4
20260505174758 16 202 0.0 6.4 0.00 0.00 0.00 54 1007.5
20260505173748 16 202 3.2 6.4 0.00 0.00 0.00 54 1007.6
20260505172746 16 202 3.2 6.4 0.00 0.00 0.00 53 1007.8
20260505171736 17 180 3.2 9.7 0.00 0.00 0.00 57 1007.5
20260505170729 17 157 3.2 6.4 0.00 0.00 0.00 61 1007.6
20260505165723 17 270 0.0 6.4 0.00 0.00 0.00 58 1007.5
20260505164717 17 247 3.2 9.7 0.00 0.00 0.00 55 1007.7
20260505163714 17 270 3.2 9.7 0.00 0.00 0.00 53 1007.6
20260505162705 18 247 3.2 6.4 0.00 0.00 0.00 54 1007.7
20260505161700 18 247 0.0 6.4 0.00 0.00 0.00 54 1007.7
20260505160652 18 202 1.6 6.4 0.00 0.00 0.00 54 1007.8
20260505152627 18 247 11.3 17.7 0.00 0.00 0.00 52 1007.6
20260505151621 18 157 8.0 14.5 0.00 0.00 0.00 53 1007.8
20260505150615 18 180 4.8 17.7 0.00 0.00 0.00 55 1007.7
20260505140540 17 202 3.2 11.3 0.00 0.00 0.00 61 1008.2
20260505124447 20 270 4.8 22.5 0.00 0.00 0.00 53 1008.5
20260505123442 20 225 12.9 25.7 0.00 0.00 0.00 50 1008.5